Year,Month,Day,Hour,Minute,Value (Times are PST for temperature in C)
2018,03,23,00,00,4.10
2018,03,23,00,01,4.10
2018,03,23,00,02,4.10
2018,03,23,00,03,4.10
2018,03,23,00,04,4.10
2018,03,23,00,05,4.00
2018,03,23,00,06,4.00
2018,03,23,00,07,4.00
2018,03,23,00,08,4.00
2018,03,23,00,09,4.00
2018,03,23,00,10,3.90
2018,03,23,00,11,3.90
2018,03,23,00,12,3.90
2018,03,23,00,13,3.90
2018,03,23,00,14,3.90
2018,03,23,00,15,3.80
2018,03,23,00,16,3.80
2018,03,23,00,17,3.80
2018,03,23,00,18,3.80
2018,03,23,00,19,3.80
2018,03,23,00,20,3.80
2018,03,23,00,21,3.70
2018,03,23,00,22,3.70
2018,03,23,00,23,3.70
2018,03,23,00,24,3.70
2018,03,23,00,25,3.70
2018,03,23,00,26,3.70
2018,03,23,00,27,3.70
2018,03,23,00,28,3.60
2018,03,23,00,29,3.60
2018,03,23,00,30,3.60
2018,03,23,00,31,3.60
2018,03,23,00,32,3.60
2018,03,23,00,33,3.60
2018,03,23,00,34,3.60
2018,03,23,00,35,3.50
2018,03,23,00,36,3.50
2018,03,23,00,37,3.40
2018,03,23,00,38,3.40
2018,03,23,00,39,3.40
2018,03,23,00,40,3.40
2018,03,23,00,41,3.40
2018,03,23,00,42,3.50
2018,03,23,00,43,3.60
2018,03,23,00,44,3.60
2018,03,23,00,45,3.70
2018,03,23,00,46,3.70
2018,03,23,00,47,3.70
2018,03,23,00,48,3.80
2018,03,23,00,49,3.80
2018,03,23,00,50,3.90
2018,03,23,00,51,4.00
2018,03,23,00,52,4.10
2018,03,23,00,53,4.10
2018,03,23,00,54,4.20
2018,03,23,00,55,4.20
2018,03,23,00,56,4.30
2018,03,23,00,57,4.30
2018,03,23,00,58,4.30
2018,03,23,00,59,4.40
2018,03,23,01,00,4.40
2018,03,23,01,01,4.40
2018,03,23,01,02,4.40
2018,03,23,01,03,4.40
2018,03,23,01,04,4.40
2018,03,23,01,05,4.40
2018,03,23,01,06,4.40
2018,03,23,01,07,4.50
2018,03,23,01,08,4.50
2018,03,23,01,09,4.50
2018,03,23,01,10,4.50
2018,03,23,01,11,4.50
2018,03,23,01,12,4.50
2018,03,23,01,13,4.50
2018,03,23,01,14,4.50
2018,03,23,01,15,4.50
2018,03,23,01,16,4.50
2018,03,23,01,17,4.50
2018,03,23,01,18,4.60
2018,03,23,01,19,4.60
2018,03,23,01,20,4.60
2018,03,23,01,21,4.60
2018,03,23,01,22,4.60
2018,03,23,01,23,4.60
2018,03,23,01,24,4.60
2018,03,23,01,25,4.60
2018,03,23,01,26,4.60
2018,03,23,01,27,4.60
2018,03,23,01,28,4.60
2018,03,23,01,29,4.60
2018,03,23,01,30,4.60
2018,03,23,01,31,4.60
2018,03,23,01,32,4.60
2018,03,23,01,33,4.60
2018,03,23,01,34,4.60
2018,03,23,01,35,4.60
2018,03,23,01,36,4.60
2018,03,23,01,37,4.60
2018,03,23,01,38,4.60
2018,03,23,01,39,4.60
2018,03,23,01,40,4.60
2018,03,23,01,41,4.60
2018,03,23,01,42,4.60
2018,03,23,01,43,4.60
2018,03,23,01,44,4.60
2018,03,23,01,45,4.60
2018,03,23,01,46,4.60
2018,03,23,01,47,4.60
2018,03,23,01,48,4.60
2018,03,23,01,49,4.60
2018,03,23,01,50,4.60
2018,03,23,01,51,4.60
2018,03,23,01,52,4.50
2018,03,23,01,53,4.50
2018,03,23,01,54,4.50
2018,03,23,01,55,4.50
2018,03,23,01,56,4.50
2018,03,23,01,57,4.50
2018,03,23,01,58,4.50
2018,03,23,01,59,4.50
2018,03,23,02,00,4.50
2018,03,23,02,01,4.50
2018,03,23,02,02,4.50
2018,03,23,02,03,4.50
2018,03,23,02,04,4.40
2018,03,23,02,05,4.40
2018,03,23,02,06,4.40
2018,03,23,02,07,4.40
2018,03,23,02,08,4.40
2018,03,23,02,09,4.40
2018,03,23,02,10,4.40
2018,03,23,02,11,4.40
2018,03,23,02,12,4.40
2018,03,23,02,13,4.40
2018,03,23,02,14,4.40
2018,03,23,02,15,4.40
2018,03,23,02,16,4.40
2018,03,23,02,17,4.40
2018,03,23,02,18,4.40
2018,03,23,02,19,4.40
2018,03,23,02,20,4.30
2018,03,23,02,21,4.30
2018,03,23,02,22,4.30
2018,03,23,02,23,4.30
2018,03,23,02,24,4.30
2018,03,23,02,25,4.30
2018,03,23,02,26,4.20
2018,03,23,02,27,4.20
2018,03,23,02,28,4.20
2018,03,23,02,29,4.20
2018,03,23,02,30,4.20
2018,03,23,02,31,4.20
2018,03,23,02,32,4.20
2018,03,23,02,33,4.20
2018,03,23,02,34,4.20
2018,03,23,02,35,4.20
2018,03,23,02,36,4.20
2018,03,23,02,37,4.20
2018,03,23,02,38,4.30
2018,03,23,02,39,4.30
2018,03,23,02,40,4.30
2018,03,23,02,41,4.30
2018,03,23,02,42,4.30
2018,03,23,02,43,4.30
2018,03,23,02,44,4.30
2018,03,23,02,45,4.20
2018,03,23,02,46,4.20
2018,03,23,02,47,4.20
2018,03,23,02,48,4.20
2018,03,23,02,49,4.20
2018,03,23,02,50,4.20
2018,03,23,02,51,4.20
2018,03,23,02,52,4.20
2018,03,23,02,53,4.20
2018,03,23,02,54,4.20
2018,03,23,02,55,4.20
2018,03,23,02,56,4.20
2018,03,23,02,57,4.20
2018,03,23,02,58,4.20
2018,03,23,02,59,4.20
2018,03,23,03,00,4.20
2018,03,23,03,01,4.20
2018,03,23,03,02,4.20
2018,03,23,03,03,4.20
2018,03,23,03,04,4.10
2018,03,23,03,05,4.10
2018,03,23,03,06,4.10
2018,03,23,03,07,4.10
2018,03,23,03,08,4.10
2018,03,23,03,09,4.20
2018,03,23,03,10,4.20
2018,03,23,03,11,4.20
2018,03,23,03,12,4.20
2018,03,23,03,13,4.20
2018,03,23,03,14,4.20
2018,03,23,03,15,4.20
2018,03,23,03,16,4.10
2018,03,23,03,17,4.20
2018,03,23,03,18,4.10
2018,03,23,03,19,4.10
2018,03,23,03,20,4.10
2018,03,23,03,21,4.10
2018,03,23,03,22,4.10
2018,03,23,03,23,4.10
2018,03,23,03,24,4.10
2018,03,23,03,25,4.10
2018,03,23,03,26,4.10
2018,03,23,03,27,4.10
2018,03,23,03,28,4.10
2018,03,23,03,29,4.10
2018,03,23,03,30,4.10
2018,03,23,03,31,4.10
2018,03,23,03,32,4.10
2018,03,23,03,33,4.10
2018,03,23,03,34,4.10
2018,03,23,03,35,4.10
2018,03,23,03,36,4.10
2018,03,23,03,37,4.10
2018,03,23,03,38,4.10
2018,03,23,03,39,4.10
2018,03,23,03,40,4.10
2018,03,23,03,41,4.10
2018,03,23,03,42,4.10
2018,03,23,03,43,4.20
2018,03,23,03,44,4.20
2018,03,23,03,45,4.20
2018,03,23,03,46,4.20
2018,03,23,03,47,4.20
2018,03,23,03,48,4.20
2018,03,23,03,49,4.20
2018,03,23,03,50,4.30
2018,03,23,03,51,4.30
2018,03,23,03,52,4.30
2018,03,23,03,53,4.30
2018,03,23,03,54,4.30
2018,03,23,03,55,4.30
2018,03,23,03,56,4.30
2018,03,23,03,57,4.30
2018,03,23,03,58,4.30
2018,03,23,03,59,4.30
2018,03,23,04,00,4.40
2018,03,23,04,01,4.40
2018,03,23,04,02,4.40
2018,03,23,04,03,4.40
2018,03,23,04,04,4.40
2018,03,23,04,08,4.40
2018,03,23,04,09,4.40
2018,03,23,04,10,4.40
2018,03,23,04,11,4.50
2018,03,23,04,12,4.50
2018,03,23,04,13,4.60
2018,03,23,04,14,4.60
2018,03,23,04,15,4.60
2018,03,23,04,16,4.70
2018,03,23,04,17,4.70
2018,03,23,04,18,4.70
2018,03,23,04,19,4.70
2018,03,23,04,20,4.70
2018,03,23,04,21,4.70
2018,03,23,04,22,4.70
2018,03,23,04,23,4.70
2018,03,23,04,24,4.70
2018,03,23,04,25,4.70
2018,03,23,04,26,4.70
2018,03,23,04,27,4.70
2018,03,23,04,28,4.70
2018,03,23,04,29,4.70
2018,03,23,04,30,4.70
2018,03,23,04,31,4.70
2018,03,23,04,32,4.70
2018,03,23,04,33,4.70
2018,03,23,04,34,4.70
2018,03,23,04,35,4.70
2018,03,23,04,36,4.70
2018,03,23,04,37,4.70
2018,03,23,04,38,4.70
2018,03,23,04,39,4.60
2018,03,23,04,40,4.60
2018,03,23,04,41,4.60
2018,03,23,04,42,4.60
2018,03,23,04,43,4.60
2018,03,23,04,44,4.60
2018,03,23,04,45,4.50
2018,03,23,04,46,4.50
2018,03,23,04,47,4.50
2018,03,23,04,48,4.50
2018,03,23,04,49,4.40
2018,03,23,04,50,4.40
2018,03,23,04,51,4.40
2018,03,23,04,52,4.40
2018,03,23,04,53,4.40
2018,03,23,04,54,4.40
2018,03,23,04,55,4.40
2018,03,23,04,56,4.40
2018,03,23,04,57,4.40
2018,03,23,04,58,4.30
2018,03,23,04,59,4.30
2018,03,23,05,00,4.30
2018,03,23,05,01,4.30
2018,03,23,05,02,4.30
2018,03,23,05,03,4.30
2018,03,23,05,04,4.30
2018,03,23,05,05,4.30
2018,03,23,05,06,4.30
2018,03,23,05,07,4.30
2018,03,23,05,08,4.30
2018,03,23,05,09,4.20
2018,03,23,05,10,4.20
2018,03,23,05,11,4.20
2018,03,23,05,12,4.20
2018,03,23,05,13,4.20
2018,03,23,05,14,4.20
2018,03,23,05,15,4.10
2018,03,23,05,16,4.10
2018,03,23,05,17,4.10
2018,03,23,05,18,4.10
2018,03,23,05,19,4.10
2018,03,23,05,20,4.00
2018,03,23,05,21,4.00
2018,03,23,05,22,4.00
2018,03,23,05,23,3.90
2018,03,23,05,24,3.90
2018,03,23,05,25,3.90
2018,03,23,05,26,3.90
2018,03,23,05,27,3.90
2018,03,23,05,28,3.90
2018,03,23,05,29,3.90
2018,03,23,05,30,3.90
2018,03,23,05,31,3.90
2018,03,23,05,32,3.90
2018,03,23,05,33,3.80
2018,03,23,05,34,3.80
2018,03,23,05,35,3.80
2018,03,23,05,36,3.80
2018,03,23,05,37,3.80
2018,03,23,05,38,3.80
2018,03,23,05,39,3.80
2018,03,23,05,40,3.80
2018,03,23,05,41,3.70
2018,03,23,05,42,3.70
2018,03,23,05,43,3.70
2018,03,23,05,44,3.70
2018,03,23,05,45,3.70
2018,03,23,05,46,3.70
2018,03,23,05,47,3.70
2018,03,23,05,48,3.70
2018,03,23,05,49,3.60
2018,03,23,05,50,3.60
2018,03,23,05,51,3.60
2018,03,23,05,52,3.50
2018,03,23,05,53,3.50
2018,03,23,05,54,3.50
2018,03,23,05,55,3.50
2018,03,23,05,56,3.40
2018,03,23,05,57,3.40
2018,03,23,05,58,3.40
2018,03,23,05,59,3.40
2018,03,23,06,00,3.40
2018,03,23,06,01,3.40
2018,03,23,06,02,3.30
2018,03,23,06,03,3.30
2018,03,23,06,04,3.30
2018,03,23,06,05,3.30
2018,03,23,06,06,3.30
2018,03,23,06,07,3.30
2018,03,23,06,08,3.20
2018,03,23,06,09,3.20
2018,03,23,06,10,3.20
2018,03,23,06,11,3.20
2018,03,23,06,12,3.20
2018,03,23,06,13,3.20
2018,03,23,06,14,3.20
2018,03,23,06,15,3.20
2018,03,23,06,16,3.20
2018,03,23,06,17,3.20
2018,03,23,06,18,3.20
2018,03,23,06,19,3.20
2018,03,23,06,20,3.20
2018,03,23,06,21,3.20
2018,03,23,06,22,3.20
2018,03,23,06,23,3.20
2018,03,23,06,24,3.20
2018,03,23,06,25,3.20
2018,03,23,06,26,3.20
2018,03,23,06,27,3.20
2018,03,23,06,28,3.20
2018,03,23,06,29,3.20
2018,03,23,06,30,3.20
2018,03,23,06,31,3.20
2018,03,23,06,32,3.20
2018,03,23,06,33,3.20
2018,03,23,06,34,3.20
2018,03,23,06,35,3.20
2018,03,23,06,36,3.20
2018,03,23,06,37,3.10
2018,03,23,06,38,3.10
2018,03,23,06,39,3.10
2018,03,23,06,40,3.00
2018,03,23,06,41,3.00
2018,03,23,06,42,2.90
2018,03,23,06,43,2.90
2018,03,23,06,44,2.90
2018,03,23,06,45,2.90
2018,03,23,06,46,3.00
2018,03,23,06,47,3.00
2018,03,23,06,48,3.00
2018,03,23,06,49,3.10
2018,03,23,06,50,3.10
2018,03,23,06,51,3.10
2018,03,23,06,52,3.10
2018,03,23,06,53,3.10
2018,03,23,06,54,3.10
2018,03,23,06,55,3.10
2018,03,23,06,56,3.10
2018,03,23,06,57,3.10
2018,03,23,06,58,3.10
2018,03,23,06,59,3.00
2018,03,23,07,00,3.00
2018,03,23,07,01,2.90
2018,03,23,07,02,2.90
2018,03,23,07,03,2.80
2018,03,23,07,04,2.80
2018,03,23,07,05,2.80
2018,03,23,07,06,2.80
2018,03,23,07,07,2.80
2018,03,23,07,08,2.80
2018,03,23,07,09,2.80
2018,03,23,07,10,2.80
2018,03,23,07,11,2.80
2018,03,23,07,12,2.80
2018,03,23,07,13,2.80
2018,03,23,07,14,2.90
2018,03,23,07,15,2.90
2018,03,23,07,16,2.90
2018,03,23,07,17,2.90
2018,03,23,07,18,3.00
2018,03,23,07,19,3.00
2018,03,23,07,20,3.00
2018,03,23,07,21,2.90
2018,03,23,07,22,2.90
2018,03,23,07,23,2.90
2018,03,23,07,24,2.90
2018,03,23,07,25,2.90
2018,03,23,07,26,2.90
2018,03,23,07,27,2.90
2018,03,23,07,28,2.90
2018,03,23,07,29,2.90
2018,03,23,07,30,2.90
2018,03,23,07,31,2.80
2018,03,23,07,32,2.80
2018,03,23,07,33,2.80
2018,03,23,07,34,2.80
2018,03,23,07,35,2.80
2018,03,23,07,36,2.80
2018,03,23,07,37,2.80
2018,03,23,07,38,2.80
2018,03,23,07,39,2.80
2018,03,23,07,40,2.80
2018,03,23,07,41,2.80
2018,03,23,07,42,2.80
2018,03,23,07,43,2.80
2018,03,23,07,44,2.80
2018,03,23,07,45,2.80
2018,03,23,07,46,2.80
2018,03,23,07,47,2.80
2018,03,23,07,48,2.90
2018,03,23,07,49,2.90
2018,03,23,07,50,2.90
2018,03,23,07,51,2.90
2018,03,23,07,52,2.90
2018,03,23,07,53,2.90
2018,03,23,07,54,2.90
2018,03,23,07,55,2.90
2018,03,23,07,56,2.90
2018,03,23,07,57,2.90
2018,03,23,07,58,2.90
2018,03,23,07,59,2.90
2018,03,23,08,00,2.90
2018,03,23,08,01,2.90
2018,03,23,08,02,2.90
2018,03,23,08,03,2.90
2018,03,23,08,04,2.90
2018,03,23,08,05,2.90
2018,03,23,08,06,2.90
2018,03,23,08,07,2.90
2018,03,23,08,08,3.00
2018,03,23,08,09,3.00
2018,03,23,08,10,3.00
2018,03,23,08,11,3.10
2018,03,23,08,12,3.10
2018,03,23,08,13,3.10
2018,03,23,08,14,3.10
2018,03,23,08,15,3.20
2018,03,23,08,16,3.20
2018,03,23,08,17,3.20
2018,03,23,08,18,3.30
2018,03,23,08,19,3.30
2018,03,23,08,20,3.30
2018,03,23,08,21,3.30
2018,03,23,08,22,3.30
2018,03,23,08,23,3.30
2018,03,23,08,24,3.40
2018,03,23,08,25,3.40
2018,03,23,08,26,3.40
2018,03,23,08,27,3.40
2018,03,23,08,28,3.50
2018,03,23,08,29,3.50
2018,03,23,08,30,3.50
2018,03,23,08,31,3.60
2018,03,23,08,32,3.60
2018,03,23,08,33,3.60
2018,03,23,08,34,3.70
2018,03,23,08,35,3.70
2018,03,23,08,36,3.70
2018,03,23,08,37,3.70
2018,03,23,08,38,3.80
2018,03,23,08,39,3.80
2018,03,23,08,40,3.80
2018,03,23,08,41,3.80
2018,03,23,08,42,3.80
2018,03,23,08,43,3.80
2018,03,23,08,44,3.80
2018,03,23,08,45,3.90
2018,03,23,08,46,3.90
2018,03,23,08,47,3.90
2018,03,23,08,48,3.90
2018,03,23,08,49,4.00
2018,03,23,08,50,4.00
2018,03,23,08,51,4.00
2018,03,23,08,52,4.10
2018,03,23,08,53,4.10
2018,03,23,08,54,4.10
2018,03,23,08,55,4.10
2018,03,23,08,56,4.10
2018,03,23,08,57,4.10
2018,03,23,08,58,4.20
2018,03,23,08,59,4.20
2018,03,23,09,00,4.20
2018,03,23,09,01,4.30
2018,03,23,09,02,4.30
2018,03,23,09,03,4.30
2018,03,23,09,04,4.30
2018,03,23,09,05,4.30
2018,03,23,09,06,4.40
2018,03,23,09,07,4.40
2018,03,23,09,08,4.50
2018,03,23,09,09,4.50
2018,03,23,09,10,4.60
2018,03,23,09,11,4.60
2018,03,23,09,12,4.70
2018,03,23,09,13,4.70
2018,03,23,09,14,4.80
2018,03,23,09,15,4.90
2018,03,23,09,16,5.00
2018,03,23,09,17,5.10
2018,03,23,09,18,5.20
2018,03,23,09,19,5.30
2018,03,23,09,20,5.40
2018,03,23,09,21,5.50
2018,03,23,09,22,5.60
2018,03,23,09,23,5.60
2018,03,23,09,24,5.70
2018,03,23,09,25,5.70
2018,03,23,09,26,5.70
2018,03,23,09,27,5.70
2018,03,23,09,28,5.70
2018,03,23,09,29,5.80
2018,03,23,09,30,5.70
2018,03,23,09,31,5.80
2018,03,23,09,32,5.80
2018,03,23,09,33,5.80
2018,03,23,09,34,5.80
2018,03,23,09,35,5.90
2018,03,23,09,36,5.90
2018,03,23,09,37,5.90
2018,03,23,09,38,5.90
2018,03,23,09,39,6.00
2018,03,23,09,40,6.00
2018,03,23,09,41,6.00
2018,03,23,09,42,6.00
2018,03,23,09,43,6.00
2018,03,23,09,44,6.00
2018,03,23,09,45,6.10
2018,03,23,09,46,6.10
2018,03,23,09,47,6.10
2018,03,23,09,48,6.20
2018,03,23,09,49,6.20
2018,03,23,09,50,6.20
2018,03,23,09,51,6.30
2018,03,23,09,52,6.30
2018,03,23,09,53,6.30
2018,03,23,09,54,6.30
2018,03,23,09,55,6.30
2018,03,23,09,56,6.30
2018,03,23,09,57,6.30
2018,03,23,09,58,6.30
2018,03,23,09,59,6.30
2018,03,23,10,00,6.30
2018,03,23,10,01,6.40
2018,03,23,10,02,6.40
2018,03,23,10,03,6.40
2018,03,23,10,04,6.40
2018,03,23,10,05,6.40
2018,03,23,10,06,6.40
2018,03,23,10,07,6.40
2018,03,23,10,08,6.40
2018,03,23,10,09,6.40
2018,03,23,10,10,6.50
2018,03,23,10,11,6.50
2018,03,23,10,12,6.60
2018,03,23,10,13,6.70
2018,03,23,10,14,6.70
2018,03,23,10,15,6.70
2018,03,23,10,16,6.70
2018,03,23,10,17,6.70
2018,03,23,10,18,6.70
2018,03,23,10,19,6.70
2018,03,23,10,20,6.70
2018,03,23,10,21,6.70
2018,03,23,10,22,6.60
2018,03,23,10,23,6.60
2018,03,23,10,24,6.60
2018,03,23,10,25,6.60
2018,03,23,10,26,6.60
2018,03,23,10,27,6.60
2018,03,23,10,28,6.70
2018,03,23,10,29,6.70
2018,03,23,10,30,6.70
2018,03,23,10,31,6.60
2018,03,23,10,32,6.60
2018,03,23,10,33,6.70
2018,03,23,10,34,6.70
2018,03,23,10,35,6.70
2018,03,23,10,36,6.70
2018,03,23,10,37,6.70
2018,03,23,10,38,6.70
2018,03,23,10,39,6.70
2018,03,23,10,40,6.70
2018,03,23,10,41,6.60
2018,03,23,10,42,6.60
2018,03,23,10,43,6.60
2018,03,23,10,44,6.60
2018,03,23,10,45,6.70
2018,03,23,10,46,6.70
2018,03,23,10,47,6.70
2018,03,23,10,48,6.80
2018,03,23,10,49,6.80
2018,03,23,10,50,6.90
2018,03,23,10,51,6.90
2018,03,23,10,52,6.90
2018,03,23,10,53,6.90
2018,03,23,10,54,6.90
2018,03,23,10,55,6.80
2018,03,23,10,56,6.80
2018,03,23,10,57,6.70
2018,03,23,10,58,6.70
2018,03,23,10,59,6.70
2018,03,23,11,00,6.70
2018,03,23,11,01,6.70
2018,03,23,11,02,6.70
2018,03,23,11,03,6.70
2018,03,23,11,04,6.70
2018,03,23,11,05,6.80
2018,03,23,11,06,6.90
2018,03,23,11,07,7.00
2018,03,23,11,08,7.00
2018,03,23,11,09,7.10
2018,03,23,11,10,7.20
2018,03,23,11,11,7.20
2018,03,23,11,12,7.20
2018,03,23,11,13,7.20
2018,03,23,11,14,7.20
2018,03,23,11,15,7.20
2018,03,23,11,16,7.20
2018,03,23,11,17,7.20
2018,03,23,11,18,7.20
2018,03,23,11,19,7.10
2018,03,23,11,20,7.20
2018,03,23,11,21,7.20
2018,03,23,11,22,7.20
2018,03,23,11,23,7.20
2018,03,23,11,24,7.10
2018,03,23,11,25,7.10
2018,03,23,11,26,7.10
2018,03,23,11,27,7.10
2018,03,23,11,28,7.20
2018,03,23,11,29,7.20
2018,03,23,11,30,7.20
2018,03,23,11,31,7.10
2018,03,23,11,32,7.10
2018,03,23,11,33,7.10
2018,03,23,11,34,7.10
2018,03,23,11,35,7.10
2018,03,23,11,36,7.10
2018,03,23,11,37,7.10
2018,03,23,11,38,7.10
2018,03,23,11,39,7.10
2018,03,23,11,40,7.20
2018,03,23,11,41,7.20
2018,03,23,11,42,7.20
2018,03,23,11,43,7.20
2018,03,23,11,44,7.20
2018,03,23,11,45,7.20
2018,03,23,11,46,7.20
2018,03,23,11,47,7.30
2018,03,23,11,48,7.40
2018,03,23,11,49,7.40
2018,03,23,11,50,7.20
2018,03,23,11,51,7.10
2018,03,23,11,52,7.10
2018,03,23,11,53,7.00
2018,03,23,11,54,7.00
2018,03,23,11,55,6.90
2018,03,23,11,56,6.80
2018,03,23,11,57,6.80
2018,03,23,11,58,6.80
2018,03,23,11,59,6.80
2018,03,23,12,00,6.80
2018,03,23,12,01,6.70
2018,03,23,12,02,6.70
2018,03,23,12,03,6.70
2018,03,23,12,04,6.60
2018,03,23,12,05,6.70
2018,03,23,12,06,6.70
2018,03,23,12,07,6.70
2018,03,23,12,08,6.80
2018,03,23,12,09,6.80
2018,03,23,12,10,6.80
2018,03,23,12,11,6.90
2018,03,23,12,12,6.90
2018,03,23,12,13,6.90
2018,03,23,12,14,6.80
2018,03,23,12,15,6.80
2018,03,23,12,16,6.80
2018,03,23,12,17,6.90
2018,03,23,12,18,6.90
2018,03,23,12,19,6.80
2018,03,23,12,20,6.80
2018,03,23,12,21,6.80
2018,03,23,12,22,6.70
2018,03,23,12,23,6.70
2018,03,23,12,24,6.70
2018,03,23,12,25,6.60
2018,03,23,12,26,6.50
2018,03,23,12,27,6.50
2018,03,23,12,28,6.50
2018,03,23,12,29,6.60
2018,03,23,12,30,6.70
2018,03,23,12,31,6.70
2018,03,23,12,32,6.80
2018,03,23,12,33,6.90
2018,03,23,12,34,6.90
2018,03,23,12,35,6.90
2018,03,23,12,36,6.90
2018,03,23,12,37,6.90
2018,03,23,12,38,6.90
2018,03,23,12,39,6.90
2018,03,23,12,40,6.90
2018,03,23,12,41,6.90
2018,03,23,12,42,6.90
2018,03,23,12,43,6.90
2018,03,23,12,44,6.90
2018,03,23,12,45,6.90
2018,03,23,12,46,6.90
2018,03,23,12,47,7.00
2018,03,23,12,48,7.00
2018,03,23,12,49,7.10
2018,03,23,12,50,7.10
2018,03,23,12,51,7.00
2018,03,23,12,52,6.90
2018,03,23,12,53,6.90
2018,03,23,12,54,6.80
2018,03,23,12,55,6.80
2018,03,23,12,56,6.80
2018,03,23,12,57,6.80
2018,03,23,12,58,6.80
2018,03,23,12,59,6.90
2018,03,23,13,00,6.90
2018,03,23,13,01,7.00
2018,03,23,13,02,7.00
2018,03,23,13,03,7.00
2018,03,23,13,04,6.90
2018,03,23,13,05,6.90
2018,03,23,13,06,6.90
2018,03,23,13,07,6.80
2018,03,23,13,08,6.80
2018,03,23,13,09,6.80
2018,03,23,13,10,6.70
2018,03,23,13,11,6.70
2018,03,23,13,12,6.60
2018,03,23,13,13,6.50
2018,03,23,13,14,6.50
2018,03,23,13,15,6.50
2018,03,23,13,16,6.50
2018,03,23,13,17,6.50
2018,03,23,13,18,6.50
2018,03,23,13,19,6.50
2018,03,23,13,20,6.40
2018,03,23,13,21,6.40
2018,03,23,13,22,6.30
2018,03,23,13,23,6.30
2018,03,23,13,24,6.30
2018,03,23,13,25,6.20
2018,03,23,13,26,6.20
2018,03,23,13,27,6.20
2018,03,23,13,28,6.20
2018,03,23,13,29,6.20
2018,03,23,13,30,6.20
2018,03,23,13,31,6.20
2018,03,23,13,32,6.10
2018,03,23,13,33,6.10
2018,03,23,13,34,6.10
2018,03,23,13,35,6.10
2018,03,23,13,36,6.10
2018,03,23,13,37,6.00
2018,03,23,13,38,6.00
2018,03,23,13,39,6.00
2018,03,23,13,40,5.90
2018,03,23,13,41,5.90
2018,03,23,13,42,5.90
2018,03,23,13,43,5.90
2018,03,23,13,44,5.80
2018,03,23,13,45,5.80
2018,03,23,13,46,5.80
2018,03,23,13,47,5.70
2018,03,23,13,48,5.70
2018,03,23,13,49,5.70
2018,03,23,13,50,5.70
2018,03,23,13,51,5.80
2018,03,23,13,52,5.80
2018,03,23,13,53,5.80
2018,03,23,13,54,5.80
2018,03,23,13,55,5.80
2018,03,23,13,56,5.80
2018,03,23,13,57,5.80
2018,03,23,13,58,5.80
2018,03,23,13,59,5.80
2018,03,23,14,00,5.80
2018,03,23,14,01,5.80
2018,03,23,14,02,5.80
2018,03,23,14,03,5.90
2018,03,23,14,04,5.90
2018,03,23,14,05,5.90
2018,03,23,14,06,6.00
2018,03,23,14,07,6.00
2018,03,23,14,08,6.10
2018,03,23,14,09,6.10
2018,03,23,14,10,6.20
2018,03,23,14,11,6.20
2018,03,23,14,12,6.30
2018,03,23,14,13,6.30
2018,03,23,14,14,6.30
2018,03,23,14,15,6.40
2018,03,23,14,16,6.40
2018,03,23,14,17,6.40
2018,03,23,14,18,6.40
2018,03,23,14,19,6.40
2018,03,23,14,20,6.50
2018,03,23,14,21,6.50
2018,03,23,14,22,6.50
2018,03,23,14,23,6.40
2018,03,23,14,24,6.40
2018,03,23,14,25,6.40
2018,03,23,14,26,6.40
2018,03,23,14,27,6.40
2018,03,23,14,28,6.40
2018,03,23,14,29,6.40
2018,03,23,14,30,6.40
2018,03,23,14,31,6.40
2018,03,23,14,32,6.40
2018,03,23,14,33,6.40
2018,03,23,14,34,6.40
2018,03,23,14,35,6.50
2018,03,23,14,36,6.50
2018,03,23,14,37,6.60
2018,03,23,14,38,6.70
2018,03,23,14,39,6.70
2018,03,23,14,40,6.80
2018,03,23,14,41,6.90
2018,03,23,14,42,7.00
2018,03,23,14,43,7.10
2018,03,23,14,44,7.20
2018,03,23,14,45,7.20
2018,03,23,14,46,7.30
2018,03,23,14,47,7.50
2018,03,23,14,48,7.60
2018,03,23,14,49,7.60
2018,03,23,14,50,7.70
2018,03,23,14,51,7.70
2018,03,23,14,52,7.70
2018,03,23,14,53,7.80
2018,03,23,14,54,7.80
2018,03,23,14,55,7.80
2018,03,23,14,56,7.90
2018,03,23,14,57,7.90
2018,03,23,14,58,7.90
2018,03,23,14,59,7.80
2018,03,23,15,00,7.80
2018,03,23,15,01,7.80
2018,03,23,15,02,7.70
2018,03,23,15,03,7.70
2018,03,23,15,04,7.70
2018,03,23,15,05,7.70
2018,03,23,15,06,7.80
2018,03,23,15,07,7.90
2018,03,23,15,08,7.90
2018,03,23,15,09,7.90
2018,03,23,15,10,7.90
2018,03,23,15,11,7.80
2018,03,23,15,12,7.80
2018,03,23,15,13,7.80
2018,03,23,15,14,7.80
2018,03,23,15,15,7.80
2018,03,23,15,16,7.70
2018,03,23,15,17,7.70
2018,03,23,15,18,7.80
2018,03,23,15,19,7.80
2018,03,23,15,20,7.80
2018,03,23,15,21,7.80
2018,03,23,15,22,7.80
2018,03,23,15,23,7.80
2018,03,23,15,24,7.80
2018,03,23,15,25,7.80
2018,03,23,15,26,7.80
2018,03,23,15,27,7.80
2018,03,23,15,28,7.80
2018,03,23,15,29,7.90
2018,03,23,15,30,8.00
2018,03,23,15,31,8.00
2018,03,23,15,32,8.10
2018,03,23,15,33,8.10
2018,03,23,15,34,8.10
2018,03,23,15,35,8.10
2018,03,23,15,36,8.20
2018,03,23,15,37,8.20
2018,03,23,15,38,8.20
2018,03,23,15,39,8.20
2018,03,23,15,40,8.20
2018,03,23,15,41,8.20
2018,03,23,15,42,8.20
2018,03,23,15,43,8.30
2018,03,23,15,44,8.30
2018,03,23,15,45,8.30
2018,03,23,15,46,8.30
2018,03,23,15,47,8.30
2018,03,23,15,48,8.30
2018,03,23,15,49,8.30
2018,03,23,15,50,8.30
2018,03,23,15,51,8.30
2018,03,23,15,52,8.20
2018,03,23,15,53,8.20
2018,03,23,15,54,8.20
2018,03,23,15,55,8.30
2018,03,23,15,56,8.30
2018,03,23,15,57,8.30
2018,03,23,15,58,8.30
2018,03,23,15,59,8.30
2018,03,23,16,00,8.30
2018,03,23,16,01,8.40
2018,03,23,16,02,8.40
2018,03,23,16,03,8.40
2018,03,23,16,04,8.40
2018,03,23,16,05,8.40
2018,03,23,16,06,8.40
2018,03,23,16,07,8.40
2018,03,23,16,08,8.30
2018,03,23,16,09,8.20
2018,03,23,16,10,8.20
2018,03,23,16,11,8.10
2018,03,23,16,12,8.10
2018,03,23,16,13,8.10
2018,03,23,16,14,8.10
2018,03,23,16,15,8.10
2018,03,23,16,16,8.00
2018,03,23,16,17,8.00
2018,03,23,16,18,8.00
2018,03,23,16,19,7.90
2018,03,23,16,20,7.90
2018,03,23,16,21,7.90
2018,03,23,16,22,7.90
2018,03,23,16,23,7.80
2018,03,23,16,24,7.80
2018,03,23,16,25,7.80
2018,03,23,16,26,7.80
2018,03,23,16,27,7.90
2018,03,23,16,28,7.90
2018,03,23,16,29,7.90
2018,03,23,16,30,7.90
2018,03,23,16,31,7.90
2018,03,23,16,32,7.90
2018,03,23,16,33,8.00
2018,03,23,16,34,8.00
2018,03,23,16,35,8.00
2018,03,23,16,36,8.00
2018,03,23,16,37,7.90
2018,03,23,16,38,7.90
2018,03,23,16,39,7.90
2018,03,23,16,40,8.00
2018,03,23,16,41,8.00
2018,03,23,16,42,8.00
2018,03,23,16,43,8.00
2018,03,23,16,44,8.00
2018,03,23,16,45,8.10
2018,03,23,16,46,8.10
2018,03,23,16,47,8.10
2018,03,23,16,48,8.10
2018,03,23,16,49,8.10
2018,03,23,16,50,8.10
2018,03,23,16,51,8.10
2018,03,23,16,52,8.10
2018,03,23,16,53,8.10
2018,03,23,16,54,8.10
2018,03,23,16,55,8.10
2018,03,23,16,56,8.20
2018,03,23,16,57,8.20
2018,03,23,16,58,8.20
2018,03,23,16,59,8.20
2018,03,23,17,00,8.20
2018,03,23,17,01,8.20
2018,03,23,17,02,8.20
2018,03,23,17,03,8.20
2018,03,23,17,04,8.20
2018,03,23,17,05,8.10
2018,03,23,17,06,8.10
2018,03,23,17,07,8.10
2018,03,23,17,08,8.10
2018,03,23,17,09,8.00
2018,03,23,17,10,8.00
2018,03,23,17,11,8.00
2018,03,23,17,12,7.90
2018,03,23,17,13,7.90
2018,03,23,17,14,7.90
2018,03,23,17,15,7.80
2018,03,23,17,16,7.80
2018,03,23,17,17,7.80
2018,03,23,17,18,7.70
2018,03,23,17,19,7.70
2018,03,23,17,20,7.70
2018,03,23,17,21,7.70
2018,03,23,17,22,7.60
2018,03,23,17,23,7.60
2018,03,23,17,24,7.60
2018,03,23,17,25,7.60
2018,03,23,17,26,7.60
2018,03,23,17,27,7.60
2018,03,23,17,28,7.60
2018,03,23,17,29,7.60
2018,03,23,17,30,7.60
2018,03,23,17,31,7.50
2018,03,23,17,32,7.50
2018,03,23,17,33,7.40
2018,03,23,17,34,7.40
2018,03,23,17,35,7.30
2018,03,23,17,36,7.30
2018,03,23,17,37,7.30
2018,03,23,17,38,7.30
2018,03,23,17,39,7.30
2018,03,23,17,40,7.30
2018,03,23,17,41,7.20
2018,03,23,17,42,7.20
2018,03,23,17,43,7.20
2018,03,23,17,44,7.20
2018,03,23,17,45,7.10
2018,03,23,17,46,7.10
2018,03,23,17,47,7.10
2018,03,23,17,48,7.10
2018,03,23,17,49,7.10
2018,03,23,17,50,7.10
2018,03,23,17,51,7.10
2018,03,23,17,52,7.10
2018,03,23,17,53,7.10
2018,03,23,17,54,7.10
2018,03,23,17,55,7.10
2018,03,23,17,56,7.10
2018,03,23,17,57,7.10
2018,03,23,17,58,7.10
2018,03,23,17,59,7.10
2018,03,23,18,00,7.00
2018,03,23,18,01,7.00
2018,03,23,18,02,7.00
2018,03,23,18,03,7.00
2018,03,23,18,04,7.00
2018,03,23,18,05,6.90
2018,03,23,18,06,6.90
2018,03,23,18,07,6.90
2018,03,23,18,08,6.90
2018,03,23,18,09,7.00